Find Kosmos-480

NORAD ID: 5905 Int'l Des: 1972-019 Owner: OKB10 Country: SU operational
LEOCIRCULARPOLAR

Current View

Loading 3D Globe...

About Kosmos-480

Description loading...

Upcoming Passes

Passes for default location (London). Set your location on the main map for personalized predictions.

Altitude History

Loading altitude history...

Two-Line Element Set

1 5905U 72019A 26149.92721948 .00000024 00000-0 26800-4 0 9998
2 5905 82.9738 306.4335 0019779 84.3798 82.1417 13.19937685609699
Epoch: May 29, 2026 • Age: 13 hours

Current Status

Altitude 1202.4 km
Velocity 7.25 km/s
Sub-Earth Point -25.51°S, 73.69°E
Type other

Most Searched